Friday Harbor, WA
on Friday, December 28, 2012

Friday
Previous Day Next Day
Daily Summary
 ActualAverageRecord
Temperature
Mean Temperature °F °F  
Max Temperature 45°F 43°F 55°F (2011)
Min Temperature 39°F 34°F 24°F (1996)
Degree Days
Heating Degree Days 23    
Moisture
Dew Point 37°F   
Average Humidity 82    
Maximum Humidity 93    
Minimum Humidity 71    
Precipitation
Precipitation 0.00 in in in ()
Wind
Wind Speed 6 mph   
Max Wind Speed 10 mph   
Max Gust Speed mph   
Visibility 10 miles   
Events Rain   
Averages and records for this station are not official NWS values.
Key: T is trace of precipitation, MM is missing value
Source: NWS Daily Summary
Seasonal Weather Averages
Time(PST)TemperatureDew PointHumidity Pressure Visibility Wind DirectionWind SpeedGust SpeedPrecipitationEvents Conditions
12:53 AM 42.1°F 39.0°F 89% 30.16 in 10.0 miles East 9.2 mph - N/A   Overcast
1:53 AM 42.1°F 39.0°F 89% 30.16 in 10.0 miles East 9.2 mph - N/A   Overcast
2:53 AM 42.1°F 37.9°F 85% 30.15 in 10.0 miles East 6.9 mph - N/A   Overcast
3:53 AM 42.1°F 37.9°F 85% 30.14 in 10.0 miles East 8.1 mph - N/A   Overcast
4:53 AM 43.0°F 36.0°F 76% 30.13 in 10.0 miles East 9.2 mph - N/A   Overcast
5:53 AM 43.0°F 37.0°F 80% 30.12 in 10.0 miles East 10.4 mph - N/A   Overcast
6:53 AM 43.0°F 36.0°F 76% 30.12 in 10.0 miles ENE 8.1 mph - N/A   Overcast
7:53 AM 43.0°F 36.0°F 76% 30.12 in 10.0 miles ENE 5.8 mph - N/A   Overcast
8:42 AM 42.8°F 35.6°F 76% 30.12 in 10.0 miles ENE 8.1 mph - N/A   Overcast
8:53 AM 42.1°F 36.0°F 79% 30.13 in 10.0 miles East 5.8 mph - N/A   Overcast
9:53 AM 43.0°F 37.0°F 80% 30.14 in 10.0 miles ENE 8.1 mph - N/A   Overcast
10:53 AM 43.0°F 36.0°F 76% 30.14 in 10.0 miles NE 8.1 mph - N/A   Overcast
11:39 AM 44.6°F 35.6°F 71% 30.13 in 10.0 miles NE 8.1 mph - N/A   Overcast
11:53 AM 44.1°F 36.0°F 73% 30.13 in 10.0 miles NE 6.9 mph - N/A   Overcast
12:15 PM 44.6°F 35.6°F 71% 30.12 in 10.0 miles NE 8.1 mph - N/A   Overcast
12:53 PM 45.0°F 36.0°F 71% 30.12 in 10.0 miles ENE 6.9 mph - N/A   Overcast
1:53 PM 45.0°F 37.0°F 74% 30.12 in 10.0 miles Calm Calm - N/A   Overcast
2:53 PM 45.0°F 37.0°F 74% 30.13 in 10.0 miles NE 3.5 mph - N/A   Overcast
3:53 PM 44.1°F 37.0°F 76% 30.14 in 10.0 miles Calm Calm - N/A   Overcast
4:53 PM 42.1°F 37.0°F 82% 30.14 in 10.0 miles Calm Calm - N/A   Overcast
5:53 PM 41.0°F 37.9°F 89% 30.14 in 10.0 miles Calm Calm - N/A   Overcast
6:53 PM 41.0°F 37.9°F 89% 30.14 in 10.0 miles Calm Calm - N/A   Overcast
7:53 PM 41.0°F 39.0°F 93% 30.15 in 10.0 miles Calm Calm - 0.00 in Rain Light Rain
8:53 PM 41.0°F 39.0°F 93% 30.15 in 10.0 miles Calm Calm - 0.00 in Rain Light Rain
9:53 PM 41.0°F 39.0°F 93% 30.16 in 10.0 miles Calm Calm - 0.00 in   Overcast
10:10 PM 41.0°F 39.2°F 93% 30.16 in 10.0 miles Calm Calm - N/A   Overcast
10:53 PM 41.0°F 39.0°F 93% 30.17 in 10.0 miles Calm Calm - 0.00 in Rain Light Rain
11:48 PM 39.2°F 37.4°F 93% 30.16 in 10.0 miles Calm Calm - 0.00 in   Overcast
11:53 PM 39.9°F 37.9°F 93% 30.17 in 10.0 miles Calm Calm - 0.00 in   Overcast
Moon Phase
Dec. 28 Jan. 04 Jan. 11 Jan. 18 Jan. 26
Sunrise:08:03 AM (PST) Moon Rise:05:11 PM (PST)12/28
Sunset:04:24 PM (PST) Moon Set:07:57 AM (PST)12/28

Copyright © 2014 The Weather Underground, Inc.